Regional Weather Roundup
Issued by NWS

Home | Current Version | Previous Version | Text Only | Print | Product List | Glossary Off
Versions: 1 2 3 4 5 6 7 8 9 10 11 12 13 14 15 16 17 18 19 20 21 22 23 24 25 26 27 28

000
ASUS45 KSLC 190010
RWRUT

UTAH REGIONAL WEATHER ROUNDUP
NATIONAL WEATHER SERVICE SALT LAKE CITY UT
600 PM MDT WED OCT 18 2017

UTZ001>011-023>025-190100-

NORTHERN UTAH

CITY           SKY/WX    TMP DP  RH WIND       PRES   REMARKS
BRIGHAM CITY   CLEAR     67  26  21 S3        30.12F
HILL AFB       CLEAR     66  24  20 NW5       30.13F
LOGAN          CLEAR     71  23  16 CALM      30.11F
OGDEN          CLEAR     66  26  22 W5        30.11F
SALT LAKE CITY PTCLDY    66  33  29 W6        30.10F
TOOELE VALLEY  CLEAR     61  30  31 CALM      30.12F
WENDOVER       CLEAR     61  19  19 SE3       30.11F
WEST JORDAN    CLEAR     64  32  30 N3        30.13F

$$

UTZ011>015-024>027-190100-

CENTRAL/NORTHEAST UTAH

CITY           SKY/WX    TMP DP  RH WIND       PRES   REMARKS
PROVO AIRPORT  CLEAR     65  26  23 CALM      30.11F
MOAB/CANYONLAN MOCLDY    71  13  10 NW7       30.10F
DELTA          MOCLDY    63  21  20 S7        30.12F
PRICE          CLEAR     68  14  12 CALM      30.18F
RICHFIELD      CLEAR     64  27  24 CALM      30.15S
VERNAL         CLEAR     68  10  10 CALM      30.15F

$$

UTZ013>016-019>022-027-190100-

SOUTHERN UTAH

CITY           SKY/WX    TMP DP  RH WIND       PRES   REMARKS
BRYCE CANYON   CLOUDY    62  31  31 W3        30.27F
CEDAR CITY     MOCLDY    65  21  18 CALM      30.14F
MILFORD        MOCLDY    67  15  13 N7        30.11F
ST GEORGE      CLEAR     75  25  15 CALM      30.01F
HANKSVILLE     MOCLDY    70  16  12 N7        30.13F
KANAB          PTCLDY    75  25  15 CALM      30.14F
BLANDING         N/A     68  18  15 CALM      30.25S

$$

REGIONAL REPORTS     COLORADO/ARIZONA

CITY           SKY/WX    TMP DP  RH WIND       PRES   REMARKS
CRAIG, CO      CLEAR     64  11  12 W5        30.19S
GRAND JUNCTION CLOUDY    67  20  16 W5        30.12F
RIFLE, CO      CLEAR     70  16  12 CALM      30.15F
MONTROSE, CO   CLOUDY    65  19  17 NW6       30.17F
CORTEZ, CO     CLOUDY    68  24  19 W7        30.18F
COLORADO CITY  MOCLDY    75  21  13 CALM      30.13S
PAGE, AZ       CLOUDY    73  22  14 CALM      30.07F
GRAND CANYON   MOCLDY    69  28  21 W6        30.22F
KINGMAN, AZ    MOSUNNY   82  34  17 SW9       30.02F
FLAGSTAFF, AZ  CLOUDY    67  26  21 W7        30.25S

$$

REGIONAL REPORTS    NEVADA/IDAHO/WYOMING

CITY           SKY/WX    TMP DP  RH WIND       PRES   REMARKS
LAS VEGAS, NV  PTSUNNY   82  11   7 CALM      29.96F
ELY, NY        PTCLDY    71  18  13 CALM      30.14F
ELKO, NV       CLEAR     72   7   8 CALM      30.08F
POCATELLO, ID  CLEAR     66  30  26 NE3       30.08F
BURLEY, ID     CLEAR     70  25  18 NE5       30.03F
FORT BRIDGER,    N/A     64   5   9 NW8       30.24F
EVANSTON, WY   CLEAR     62   7  11 W10       30.23S
ROCK SPRINGS,  CLEAR     61   5  10 SW8       30.20F
KEMMERER, WY   CLEAR     59  12  15 W7        30.23F

$$




USA.gov is the U.S. government's official web portal to all federal, state and local government web resources and services.